Exeter, United Kingdom

10:10 AM BST on May 27, 2017 (GMT +0100)
Exeter

Weather History for EGTE - April, 2014

Change the Weather History Date:

Friday, April 11, 2014

  Actual Average Record
Temperature  
Mean Temperature 50 °F -  
Max Temperature 61 °F 56 °F 64 °F (2009)
Min Temperature 38 °F 41 °F 28 °F (2003)
Degree Days  
Heating Degree Days 16    
Moisture  
Dew Point 41 °F    
Average Humidity 71    
Maximum Humidity 100    
Minimum Humidity 38    
Precipitation  
Precipitation 0.00 in - - ()
Sea Level Pressure  
Sea Level Pressure 30.19 in    
Wind  
Wind Speed 4 mph ()    
Max Wind Speed 12 mph    
Max Gust Speed -    
Visibility 5.9 miles    
Events Fog    
Averages and records for this station are not official NWS values.
T = Trace of Precipitation, MM = Missing Value Source: Averaged Metar Reports

Daily Weather History Graph

Daily Weather History Graph

Search for Another Location

Airport or City:

Trip Planner

Search our weather history database for the weather conditions in past years. The results will help you decide how hot, cold, wet, or windy it might be!

Date:

Astronomy

Apr. 11, 2014 Rise Set
Actual Time 6:28 AM BST 8:02 PM BST
Civil Twilight 5:54 AM BST 8:36 PM BST
Nautical Twilight 5:12 AM BST 9:18 PM BST
Astronomical Twilight 4:26 AM BST 10:05 PM BST
Moon 4:07 PM BST (4/11) 4:39 AM BST (4/11)
Length of Visible Light 14h 42m
Length of Day
13h 33m
Waxing Gibbous, 85% of the Moon is Illuminated
Apr 11
Waxing Gibbous
Apr 15
Full
Apr 22
Last Quarter
Apr 29
New
May 7
First Quarter

Hourly Weather History & Observations

Time (BST) Temp. Windchill Dew Point Humidity Pressure Visibility Wind Dir Wind Speed Gust Speed Precip Events Conditions
12:00 AM 44 °F - 41 °F 87%  in - Calm Calm - -  
12:20 AM 42.8 °F 41.1 °F 41.0 °F 93% 30.18 in 6.2 mi Variable 3.5 mph - N/A   Partly Cloudy
12:50 AM 42.8 °F - 39.2 °F 87% 30.18 in 6.2 mi North 2.3 mph - N/A   Partly Cloudy
1:00 AM 39 °F - 38 °F 92%  in - Calm Calm - -  
1:20 AM 42.8 °F - 39.2 °F 87% 30.18 in 6.2 mi North 2.3 mph - N/A   Partly Cloudy
2:00 AM 41 °F - 40 °F 95%  in - Calm Calm - -  
3:00 AM 41 °F - 40 °F 94%  in - Calm Calm - -  
4:00 AM 39 °F - 39 °F 98%  in - Calm Calm - -  
5:00 AM 43 °F - 42 °F 97%  in - Calm Calm - -  
6:00 AM 39 °F - 39 °F 99%  in - Calm Calm - -  
6:20 AM 41.0 °F - 41.0 °F 100% 30.18 in 0.3 mi Calm Calm - N/A Fog Fog
6:50 AM 42.8 °F - 41.0 °F 93% 30.18 in 0.9 mi Variable 1.2 mph - N/A   Mostly Cloudy
7:00 AM 41 °F - 40 °F 96%  in - Calm Calm - -  
7:20 AM 42.8 °F - 41.0 °F 93% 30.18 in 5.6 mi Variable 1.2 mph - N/A Fog Patches of Fog
7:50 AM 42.8 °F - 42.8 °F 100% 30.21 in 6.2 mi Variable 1.2 mph - N/A   Scattered Clouds
8:00 AM 43 °F - 43 °F 99%  in - Calm Calm - -  
8:20 AM 44.6 °F - 42.8 °F 93% 30.21 in 6.2 mi Variable 2.3 mph - N/A   Partly Cloudy
8:50 AM 48.2 °F - 46.4 °F 93% 30.21 in 6.2 mi Variable 3.5 mph - N/A   Partly Cloudy
9:00 AM 49 °F - 47 °F 89%  in - Calm Calm - -  
9:20 AM 50.0 °F - 46.4 °F 87% 30.21 in 6.2 mi North 5.8 mph - N/A   Partly Cloudy
9:50 AM 53.6 °F - 44.6 °F 72% 30.21 in 6.2 mi North 9.2 mph - N/A   Partly Cloudy
10:00 AM 54 °F - 45 °F 62%  in - Calm Calm - -  
10:20 AM 53.6 °F - 44.6 °F 72% 30.21 in 6.2 mi NNE 9.2 mph - N/A   Partly Cloudy
10:50 AM 53.6 °F - 42.8 °F 67% 30.21 in 6.2 mi North 10.4 mph - N/A   Partly Cloudy
11:00 AM 55 °F - 44 °F 57%  in - Calm Calm - -  
11:20 AM 55.4 °F - 42.8 °F 63% 30.21 in 6.2 mi NNE 9.2 mph - N/A   Partly Cloudy
11:50 AM 57.2 °F - 42.8 °F 59% 30.21 in 6.2 mi Variable 4.6 mph - N/A   Partly Cloudy
12:00 PM 56 °F - 42 °F 49%  in - Calm Calm - -  
12:20 PM 57.2 °F - 42.8 °F 59% 30.21 in 6.2 mi NE 5.8 mph - N/A   Partly Cloudy
12:50 PM 57.2 °F - 41.0 °F 55% 30.21 in 6.2 mi Variable 3.5 mph - N/A   Partly Cloudy
1:00 PM 58 °F - 40 °F 39%  in - Calm Calm - -  
1:20 PM 59.0 °F - 41.0 °F 51% 30.18 in 6.2 mi Variable 2.3 mph - N/A   Scattered Clouds
1:50 PM 59.0 °F - 39.2 °F 48% 30.18 in 6.2 mi Variable 3.5 mph - N/A   Scattered Clouds
2:00 PM 58 °F - 39 °F 38%  in - Calm Calm - -  
2:20 PM 60.8 °F - 41.0 °F 48% 30.21 in 6.2 mi Variable 3.5 mph - N/A   Scattered Clouds
2:50 PM 57.2 °F - 41.0 °F 55% 30.18 in 6.2 mi SW 6.9 mph - N/A   Scattered Clouds
3:00 PM 58 °F - 41 °F 41%  in - Calm Calm - -  
3:20 PM 57.2 °F - 41.0 °F 55% 30.18 in 6.2 mi Calm Calm - N/A   Partly Cloudy
3:50 PM 59.0 °F - 41.0 °F 51% 30.18 in 6.2 mi South 5.8 mph - N/A   Partly Cloudy
4:00 PM 61 °F - 43 °F 40%  in - Calm Calm - -  
4:20 PM 60.8 °F - 42.8 °F 52% 30.18 in 6.2 mi West 5.8 mph - N/A   Partly Cloudy
4:50 PM 59.0 °F - 39.2 °F 48% 30.18 in 6.2 mi SSW 9.2 mph - N/A   Partly Cloudy
5:00 PM 57 °F - 41 °F 43%  in - Calm Calm - -  
5:20 PM 57.2 °F - 39.2 °F 51% 30.18 in 6.2 mi SSW 9.2 mph - N/A   Partly Cloudy
5:50 PM 55.4 °F - 39.2 °F 54% 30.18 in 6.2 mi SSW 9.2 mph - N/A   Partly Cloudy
6:00 PM 56 °F - 40 °F 45%  in - Calm Calm - -  
6:20 PM 57.2 °F - 41.0 °F 55% 30.18 in 6.2 mi WSW 6.9 mph - N/A   Partly Cloudy
6:50 PM 57.2 °F - 42.8 °F 59% 30.18 in 6.2 mi WNW 10.4 mph - N/A   Partly Cloudy
7:00 PM 55 °F - 43 °F 54%  in - Calm Calm - -  
7:20 PM 53.6 °F - 42.8 °F 67% 30.18 in 6.2 mi WNW 11.5 mph - N/A   Partly Cloudy
7:50 PM 51.8 °F - 42.8 °F 71% 30.18 in 6.2 mi NW 10.4 mph - N/A   Partly Cloudy
8:00 PM 51 °F - 42 °F 64%  in - Calm Calm - -  
8:20 PM 50.0 °F - 41.0 °F 71% 30.18 in 6.2 mi WNW 6.9 mph - N/A   Partly Cloudy
8:50 PM 48.2 °F - 41.0 °F 76% 30.18 in 6.2 mi West 4.6 mph - N/A   Partly Cloudy
9:00 PM 48 °F - 41 °F 70%  in - Calm Calm - -  
9:20 PM 48.2 °F - 39.2 °F 71% 30.21 in 6.2 mi Variable 3.5 mph - N/A   Partly Cloudy
9:50 PM 46.4 °F 45.2 °F 39.2 °F 76% 30.21 in 6.2 mi Variable 3.5 mph - N/A   Partly Cloudy
10:00 PM 45 °F - 40 °F 75%  in - Calm Calm - -  
10:20 PM 46.4 °F 45.2 °F 39.2 °F 76% 30.21 in 6.2 mi Variable 3.5 mph - N/A   Partly Cloudy
10:50 PM 44.6 °F - 39.2 °F 81% 30.21 in 6.2 mi Variable 2.3 mph - N/A   Partly Cloudy
11:00 PM 44 °F - 40 °F 83%  in - Calm Calm - -  
11:20 PM 44.6 °F - 39.2 °F 81% 30.21 in 6.2 mi Variable 2.3 mph - N/A   Partly Cloudy
11:50 PM 44.6 °F 43.1 °F 39.2 °F 81% 30.18 in 6.2 mi Variable 3.5 mph - N/A   Partly Cloudy